Вернуться в каталог

STARLINK-32928

АктивенСвязьVLEO
NORAD 63564·PAYLOAD·🇺🇸 United States

Запущен Apr 13, 2025 с Cape Canaveral Space Force Station

Loading…

Ближайшие Пролёты (ближайшие 24 часа)

TLE

СвежийSource: CelesTrak SupGP

Эпоха: Sep 15, 2026, 03:24 UTC

1 63564C 25075S   26258.14215278 -.00006670  00000+0 -24149-3 0  2587
2 63564  43.0008 280.4798 0001633 269.7866 115.9084 15.27591912    17

Отслеживайте STARLINK-32928 в реальном времени с AllMySat

Download on the App Store